Weather reports worldwide

Advertisment
Bardenas Reales, Spain (8087): temperature & dewpoint: 08.07.2020 11:00:00 - 14.07.2020 11:00:00 (CEST)Bardenas Reales, Spain (8087): wind speed & gusts: 08.07.2020 11:00:00 - 14.07.2020 11:00:00 (CEST)Bardenas Reales, Spain (8087): wind direction: 08.07.2020 11:00:00 - 14.07.2020 11:00:00 (CEST)Bardenas Reales, Spain (8087): reduced air pressure: 08.07.2020 11:00:00 - 14.07.2020 11:00:00 (CEST)Bardenas Reales, Spain (8087): visibility: 08.07.2020 11:00:00 - 14.07.2020 11:00:00 (CEST)Bardenas Reales, Spain (8087): sunshine duration: 08.07.2020 11:00:00 - 14.07.2020 11:00:00 (CEST)Bardenas Reales, Spain (8087): precipitation: 08.07.2020 11:00:00 - 14.07.2020 11:00:00 (CEST)
Date & Time tt [°C] td [°C] ff [km/h] ff [kn] fx [km/h] fx [kn] dd ppp [hPa] vv [km] sd [min] rr [mm]
14.07.2020 11:00:00 21,0 8,0 28 15 - - WNW - 10 - -
14.07.2020 10:00:00 19,4 9,0 29 16 45 24 WNW 1018,8 10 60 0,0
14.07.2020 09:00:00 17,8 9,2 29 16 41 22 WNW 1019,2 10 51 0,0
14.07.2020 08:00:00 16,6 8,8 26 14 42 23 WNW 1019,4 20 0 -
14.07.2020 07:00:00 16,2 9,2 30 16 45 24 WNW 1019,3 20 0 0,0
14.07.2020 06:00:00 16,3 8,8 31 17 43 23 WNW 1019,1 10 0 0,0
14.07.2020 05:00:00 16,5 8,0 28 15 42 23 WNW 1019,5 10 0 0,0
14.07.2020 04:00:00 17,0 8,9 31 17 45 24 WNW 1019,9 10 0 0,0
14.07.2020 03:00:00 17,5 9,7 28 15 43 23 WNW 1020,0 10 0 0,0
14.07.2020 02:00:00 17,9 8,1 35 19 46 25 WNW 1020,2 10 0 -
14.07.2020 01:00:00 18,4 8,4 26 14 49 26 NW 1020,3 10 0 0,0
14.07.2020 00:00:00 19,1 8,7 34 18 50 27 WNW 1020,1 10 0 0,0
13.07.2020 23:00:00 19,9 8,5 30 16 46 25 WNW 1019,8 20 0 0,0
13.07.2020 22:00:00 21,2 7,7 31 17 54 29 NW 1019,1 10 31 0,0
13.07.2020 21:00:00 23,7 7,3 37 20 55 30 NW 1018,1 10 60 0,0
13.07.2020 20:00:00 25,8 7,4 37 20 57 31 NW 1017,4 10 60 -
13.07.2020 19:00:00 27,1 7,6 40 22 53 29 NW 1016,9 20 60 0,0
13.07.2020 18:00:00 28,5 7,7 34 18 53 29 NW 1016,9 10 60 0,0
13.07.2020 17:00:00 28,6 8,8 37 20 59 32 NW 1017,2 10 60 0,0
13.07.2020 16:00:00 28,9 9,0 36 19 52 28 WNW 1017,5 20 60 0,0
13.07.2020 15:00:00 29,0 9,7 37 20 50 27 WNW 1017,9 20 60 0,0
13.07.2020 14:00:00 28,4 10,5 34 18 49 26 WNW 1018,4 10 60 -
13.07.2020 13:00:00 27,6 10,8 31 17 43 23 WNW 1018,8 10 60 0,0
13.07.2020 12:00:00 26,1 10,6 31 17 44 24 WNW 1019,4 10 60 0,0
13.07.2020 11:00:00 24,2 11,9 28 15 41 22 NW 1019,9 10 60 0,0
13.07.2020 10:00:00 22,0 12,2 29 16 40 22 WNW 1020,5 10 60 0,0
13.07.2020 09:00:00 20,0 12,2 28 15 40 21 WNW 1020,6 10 60 0,0
13.07.2020 08:00:00 18,5 12,2 29 16 40 21 WNW 1020,5 10 36 -
13.07.2020 07:00:00 17,9 12,7 26 14 36 19 WNW 1020,0 10 0 0,0
13.07.2020 06:00:00 18,3 13,9 9 5 33 18 NW 1019,6 10 0 0,0
13.07.2020 05:00:00 18,7 15,0 21 11 32 17 NW 1019,3 10 0 0,0
13.07.2020 04:00:00 19,3 15,5 22 12 - - WNW 1019,4 10 - -
13.07.2020 03:00:00 20,0 16,2 24 13 39 21 WNW 1019,2 10 0 0,0
13.07.2020 02:00:00 19,6 16,8 15 8 22 12 SW 1019,0 10 0 -
13.07.2020 01:00:00 19,7 16,0 13 7 - - W 1018,6 10 0 0,0
13.07.2020 00:00:00 20,7 15,9 8 4 24 13 - 1018,6 10 0 0,0
12.07.2020 23:00:00 20,5 16,6 18 10 62 33 NNW 1018,0 10 0 0,6
12.07.2020 22:00:00 23,5 13,9 35 19 59 32 WNW 1018,0 10 0 0,0
12.07.2020 21:00:00 28,9 12,7 13 7 30 16 ESE 1015,8 10 20 0,0
12.07.2020 20:00:00 30,5 13,8 18 10 30 16 SE 1014,7 10 51 -
12.07.2020 19:00:00 31,1 15,5 9 5 18 10 ESE 1014,5 10 57 0,0
12.07.2020 18:00:00 30,6 16,6 8 4 27 15 - 1015,0 10 60 0,0
12.07.2020 17:00:00 28,8 17,4 18 10 35 19 NW 1015,2 10 60 0,0
12.07.2020 16:00:00 28,8 17,6 22 12 33 18 NW 1015,7 10 60 0,0
12.07.2020 15:00:00 28,8 16,0 21 11 38 21 ESE 1015,5 10 46 0,0
12.07.2020 14:00:00 25,4 16,0 21 11 31 17 ENE 1016,6 10 24 -
12.07.2020 13:00:00 21,8 16,6 16 9 26 14 NNE 1019,3 10 0 0,0
12.07.2020 12:00:00 21,1 16,3 16 9 23 13 WSW 1021,0 20 11 0,2
12.07.2020 11:00:00 22,7 14,8 16 9 27 15 W 1019,1 10 35 0,0
12.07.2020 10:00:00 22,2 14,3 16 9 26 14 N 1018,2 10 37 0,0
12.07.2020 09:00:00 20,6 13,8 13 7 29 16 NW 1018,9 10 30 0,0
12.07.2020 08:00:00 19,2 13,6 13 7 21 12 WNW 1019,0 10 29 -
12.07.2020 07:00:00 17,7 12,3 4 2 5 3 - 1017,9 10 0 0,0
12.07.2020 06:00:00 18,2 12,6 4 2 8 4 SSW 1017,1 20 0 0,0
12.07.2020 05:00:00 18,4 13,1 8 4 10 5 NW 1016,7 10 0 0,0
12.07.2020 04:00:00 19,3 13,3 4 2 9 5 - 1016,6 10 0 0,0
12.07.2020 03:00:00 19,8 13,5 8 4 13 7 WNW 1016,8 10 0 0,0
12.07.2020 02:00:00 20,5 13,7 9 5 15 8 WNW 1016,6 10 0 -
12.07.2020 01:00:00 21,2 13,9 13 7 16 8 W 1016,8 10 0 0,0
12.07.2020 00:00:00 22,3 13,9 11 6 16 9 W 1016,5 10 0 0,0
11.07.2020 23:00:00 24,0 13,9 11 6 24 13 WNW 1015,9 10 0 0,0
11.07.2020 22:00:00 25,8 13,7 16 9 30 16 NW 1014,8 20 16 0,0
11.07.2020 21:00:00 28,8 12,6 22 12 32 18 WNW 1014,2 10 60 0,0
11.07.2020 20:00:00 30,6 12,5 22 12 33 18 WNW 1013,8 10 60 -
11.07.2020 19:00:00 31,8 12,5 16 9 37 20 WNW 1013,7 10 60 0,0
11.07.2020 18:00:00 32,2 12,4 10 5 24 13 WNW 1014,0 20 60 0,0
11.07.2020 17:00:00 31,4 12,2 15 8 29 16 W 1014,8 10 60 0,0
11.07.2020 16:00:00 30,9 12,3 13 7 27 15 W 1015,4 10 60 0,0
11.07.2020 15:00:00 28,9 11,9 15 8 29 16 WNW 1016,5 10 60 0,0
11.07.2020 14:00:00 27,4 12,2 16 9 34 19 WNW 1017,3 10 60 -
11.07.2020 13:00:00 26,0 12,1 21 11 34 18 WNW 1017,8 10 60 0,0
11.07.2020 12:00:00 24,2 12,5 24 13 37 20 WNW 1018,4 10 60 0,0
11.07.2020 11:00:00 22,4 12,3 24 13 37 20 WNW 1019,0 10 60 0,0
11.07.2020 10:00:00 21,2 12,1 26 14 40 21 WNW 1019,3 10 60 0,0
11.07.2020 09:00:00 19,4 11,4 28 15 42 23 NW 1019,5 10 60 0,0
11.07.2020 08:00:00 18,2 11,6 26 14 37 20 WNW 1019,5 10 37 -
11.07.2020 07:00:00 17,1 11,8 24 13 33 18 WNW 1019,3 10 0 0,0
11.07.2020 06:00:00 17,5 12,0 24 13 40 22 NW 1018,9 10 0 0,0
11.07.2020 05:00:00 17,6 12,1 24 13 43 23 NW 1018,8 10 0 0,0
11.07.2020 04:00:00 18,0 12,4 26 14 44 24 NW 1018,6 10 0 0,0
11.07.2020 03:00:00 18,2 12,6 28 15 44 24 NW 1018,9 10 0 0,0
11.07.2020 02:00:00 18,7 12,6 28 15 46 25 NW 1019,0 10 0 -
11.07.2020 01:00:00 18,7 13,2 29 16 47 26 NW 1019,2 10 0 0,0
11.07.2020 00:00:00 18,8 13,3 35 19 51 28 NW 1018,5 10 0 0,0
10.07.2020 23:00:00 19,2 13,2 28 15 43 23 NW 1018,1 10 0 0,0
10.07.2020 22:00:00 20,3 13,1 29 16 54 29 NW 1017,2 10 18 0,0
10.07.2020 21:00:00 22,3 12,8 34 18 60 33 NW 1016,2 20 60 0,0
10.07.2020 20:00:00 24,7 13,3 39 21 58 31 NW 1015,0 10 60 -
10.07.2020 19:00:00 26,9 13,7 37 20 54 29 NW 1014,1 10 60 0,0
10.07.2020 18:00:00 27,9 14,1 31 17 50 27 NW 1013,5 10 60 0,0
10.07.2020 17:00:00 29,5 14,5 28 15 42 23 NNW 1013,2 10 60 0,0
10.07.2020 16:00:00 29,5 14,5 26 14 41 22 NW 1013,6 10 60 0,0
10.07.2020 15:00:00 29,5 14,9 21 11 41 22 NW 1014,0 10 60 0,0
10.07.2020 14:00:00 28,9 14,7 21 11 39 21 NW 1014,5 10 60 -
10.07.2020 13:00:00 28,2 15,2 19 11 37 20 WNW 1014,9 20 60 0,0
10.07.2020 12:00:00 26,2 15,3 24 13 37 20 WNW 1015,4 10 60 0,0
10.07.2020 11:00:00 24,7 14,8 26 14 37 20 WNW 1016,0 20 60 0,0
10.07.2020 10:00:00 22,7 14,5 26 14 37 20 WNW 1016,3 20 60 0,0
10.07.2020 09:00:00 21,1 14,5 22 12 37 20 WNW 1016,4 10 60 0,0
10.07.2020 08:00:00 19,9 14,7 21 11 31 17 WNW 1016,3 10 34 -
10.07.2020 07:00:00 19,0 15,1 16 9 35 19 WNW 1016,4 10 0 0,0
10.07.2020 06:00:00 19,6 15,3 24 13 35 19 WNW 1016,1 10 0 0,0
10.07.2020 05:00:00 20,0 15,6 18 10 23 13 WNW 1016,3 10 0 0,0
10.07.2020 04:00:00 21,0 16,2 15 8 22 12 WNW 1016,0 10 0 0,0
10.07.2020 03:00:00 21,8 16,6 11 6 - - WNW 1015,4 10 0 0,0
10.07.2020 02:00:00 22,5 16,7 18 10 32 18 NNW 1015,1 10 0 -
10.07.2020 01:00:00 23,6 17,1 18 10 37 20 W 1015,5 10 0 0,0
10.07.2020 00:00:00 25,2 14,0 16 9 32 17 W 1015,7 10 0 0,0
09.07.2020 23:00:00 26,1 13,3 21 11 28 15 W 1014,5 10 0 0,0
09.07.2020 22:00:00 28,1 9,8 16 9 28 15 W 1013,8 20 0 0,0
09.07.2020 21:00:00 30,6 7,1 16 9 27 14 WSW 1012,6 10 0 0,0
09.07.2020 20:00:00 31,9 7,6 34 18 47 26 WSW 1012,3 10 0 -
09.07.2020 19:00:00 35,0 8,0 11 6 21 11 SSW 1011,2 20 57 0,0
09.07.2020 18:00:00 34,1 11,9 18 10 39 21 S 1011,8 10 60 0,0
09.07.2020 17:00:00 34,8 12,4 18 10 32 18 SE 1012,6 10 56 0,0
09.07.2020 16:00:00 33,3 14,3 18 10 31 17 E 1013,5 10 57 0,0
09.07.2020 15:00:00 32,0 16,3 18 10 31 17 E 1014,2 10 45 0,0
09.07.2020 14:00:00 29,8 16,6 16 9 27 14 E 1015,2 10 27 -
09.07.2020 13:00:00 29,7 16,8 4 2 16 9 - 1015,4 10 19 0,0
09.07.2020 12:00:00 28,6 15,9 5 3 15 8 - 1015,7 10 42 0,0
09.07.2020 11:00:00 27,0 16,6 9 5 14 8 S 1016,2 10 60 0,0
09.07.2020 10:00:00 23,7 16,2 9 5 15 8 W 1016,0 10 29 0,0
09.07.2020 09:00:00 22,4 15,5 4 2 16 9 - 1016,2 10 3 0,0
09.07.2020 08:00:00 21,7 15,3 13 7 21 11 N 1014,9 10 1 -
09.07.2020 07:00:00 21,3 15,2 9 5 11 6 NNE 1015,3 10 0 0,0
09.07.2020 06:00:00 21,9 15,5 8 5 16 9 S 1016,3 20 0 0,0
09.07.2020 05:00:00 22,4 15,5 6 3 17 9 SW 1015,0 20 0 0,0
09.07.2020 04:00:00 22,9 15,4 11 6 20 11 W 1014,4 10 0 0,0
09.07.2020 03:00:00 24,7 16,4 11 6 25 13 - 1014,3 10 0 0,0
09.07.2020 02:00:00 26,1 15,2 13 7 20 11 SE 1014,6 10 0 -
09.07.2020 01:00:00 25,4 11,9 13 7 26 14 ESE 1014,1 10 0 0,0
09.07.2020 00:00:00 27,7 10,4 23 12 31 17 E 1013,3 20 0 0,0
08.07.2020 23:00:00 29,0 9,2 24 13 39 21 ESE 1012,9 10 0 0,0
08.07.2020 22:00:00 28,8 9,9 21 11 35 19 E 1011,5 20 0 0,0
08.07.2020 21:00:00 31,3 8,3 21 11 32 17 SE 1010,1 10 0 0,0
08.07.2020 20:00:00 32,0 9,6 23 12 38 20 ESE 1011,0 20 0 -
08.07.2020 19:00:00 32,4 11,6 22 12 28 15 S 1011,9 10 17 0,0
08.07.2020 18:00:00 34,1 10,6 15 8 25 13 E 1011,2 10 60 0,0
08.07.2020 17:00:00 33,1 11,6 11 6 22 12 SE 1011,7 20 60 0,0
08.07.2020 16:00:00 31,7 11,0 13 7 26 14 SW 1013,1 10 47 0,0
08.07.2020 15:00:00 29,3 10,4 22 12 27 15 WSW 1013,8 10 29 0,0
08.07.2020 14:00:00 30,0 12,4 13 7 29 15 SSE 1014,2 10 34 -
08.07.2020 13:00:00 28,0 12,3 21 11 36 19 E 1014,6 10 53 0,0
08.07.2020 12:00:00 25,1 12,0 15 8 27 14 SSW 1016,5 10 43 0,0
08.07.2020 11:00:00 23,3 12,8 16 9 25 13 E 1016,6 10 46 0,0

tt = temperature
td = dewpoint
ff = wind speed
fx = gusts
dd = wind direction
ppp = reduced air pressure
vv = visibility
sd = sunshine duration
rr = precipitation

Next stations